| time (UTC) | temp F | wind direction | speed knots | gust knots | rain 1hr in | rain 24hr in | rain mn in | humidity % | barometer mb |
| 20260505064517 | 55 | 74 | 1.7 | 6.1 | 0.00 | 0.00 | 0.00 | 80 | 1031.4 |
| 20260505063016 | 55 | 43 | 2.6 | 10.4 | 0.00 | 0.00 | 0.00 | 80 | 1031.4 |
| 20260505061519 | 55 | 79 | 1.7 | 7.0 | 0.00 | 0.00 | 0.00 | 80 | 1031.6 |
| 20260505060014 | 55 | 4 | 0.0 | 4.3 | 0.00 | 0.00 | 0.00 | 80 | 1031.5 |
| 20260505054508 | 55 | 81 | 0.0 | 7.8 | 0.00 | 0.00 | 0.00 | 79 | 1031.5 |
| 20260505053015 | 56 | 74 | 2.6 | 10.4 | 0.00 | 0.00 | 0.00 | 79 | 1031.5 |
| 20260505051536 | 57 | 38 | 3.5 | 10.4 | 0.00 | 0.00 | 0.00 | 78 | 1031.5 |
| 20260505041502 | 57 | 15 | 5.2 | 13.9 | 0.00 | 0.00 | 0.00 | 76 | 1031.8 |
| 20260505040059 | 57 | 28 | 6.1 | 12.2 | 0.00 | 0.00 | 0.00 | 75 | 1031.7 |
| 20260505034534 | 58 | 20 | 5.2 | 13.9 | 0.00 | 0.00 | 0.00 | 75 | 1031.8 |
| 20260505033012 | 59 | 45 | 4.3 | 10.4 | 0.00 | 0.00 | 0.00 | 73 | 1031.7 |
| 20260505031535 | 59 | 345 | 8.7 | 13.0 | 0.00 | 0.00 | 0.00 | 72 | 1031.7 |
| 20260505030044 | 59 | 36 | 7.8 | 12.2 | 0.00 | 0.00 | 0.00 | 72 | 1031.6 |
| 20260505024552 | 59 | 349 | 12.2 | 17.4 | 0.00 | 0.00 | 0.00 | 70 | 1031.7 |
| 20260505023002 | 59 | 358 | 8.7 | 15.6 | 0.00 | 0.00 | 0.00 | 71 | 1031.8 |
| 20260505021539 | 59 | 12 | 10.4 | 16.5 | 0.00 | 0.00 | 0.00 | 71 | 1032.0 |
| 20260505014516 | 58 | 27 | 13.0 | 18.2 | 0.00 | 0.00 | 0.00 | 72 | 1032.1 |
| 20260505013033 | 58 | 14 | 7.8 | 15.6 | 0.00 | 0.00 | 0.00 | 73 | 1032.2 |
| 20260505011544 | 58 | 4 | 9.6 | 14.8 | 0.00 | 0.00 | 0.00 | 73 | 1032.4 |
| 20260505010057 | 58 | 15 | 7.8 | 12.2 | 0.00 | 0.00 | 0.00 | 74 | 1032.6 |
| 20260505004534 | 58 | 89 | 7.0 | 12.2 | 0.00 | 0.00 | 0.00 | 74 | 1032.9 |
| 20260505003005 | 58 | 11 | 13.0 | 16.5 | 0.00 | 0.00 | 0.00 | 73 | 1033.1 |
| 20260505001554 | 58 | 22 | 7.0 | 14.8 | 0.00 | 0.00 | 0.00 | 75 | 1033.3 |
| 20260505000039 | 58 | 5 | 8.7 | 14.8 | 0.00 | 0.00 | 0.00 | 74 | 1033.5 |
| 20260504234525 | 58 | 60 | 6.1 | 13.0 | 0.00 | 0.00 | 0.00 | 74 | 1033.7 |
| 20260504233010 | 58 | 6 | 6.1 | 12.2 | 0.00 | 0.00 | 0.00 | 72 | 1033.9 |
| 20260504231558 | 58 | 12 | 6.1 | 12.2 | 0.00 | 0.00 | 0.00 | 73 | 1033.9 |
| 20260504224544 | 58 | 39 | 7.8 | 13.9 | 0.00 | 0.00 | 0.00 | 73 | 1034.1 |
| 20260504223035 | 58 | 36 | 10.4 | 15.6 | 0.00 | 0.00 | 0.00 | 70 | 1034.0 |
| 20260504221525 | 58 | 17 | 7.8 | 15.6 | 0.00 | 0.00 | 0.00 | 74 | 1034.0 |
| 20260504220036 | 58 | 357 | 9.6 | 17.4 | 0.00 | 0.00 | 0.00 | 72 | 1034.1 |
| 20260504214521 | 57 | 25 | 7.8 | 14.8 | 0.00 | 0.00 | 0.00 | 71 | 1034.2 |
| 20260504213037 | 57 | 19 | 9.6 | 13.9 | 0.00 | 0.00 | 0.00 | 73 | 1034.1 |
| 20260504211509 | 57 | 13 | 9.6 | 19.1 | 0.00 | 0.00 | 0.00 | 72 | 1034.2 |
| 20260504210030 | 57 | 36 | 7.0 | 14.8 | 0.00 | 0.00 | 0.00 | 73 | 1034.2 |
| 20260504210007 | 57 | 56 | 6.1 | 14.8 | 0.00 | 0.00 | 0.00 | 73 | 1034.2 |
| 20260504204519 | 57 | 90 | 7.8 | 14.8 | 0.00 | 0.00 | 0.00 | 73 | 1034.2 |
| 20260504203058 | 57 | 63 | 6.1 | 13.9 | 0.00 | 0.00 | 0.00 | 74 | 1034.2 |
| 20260504201558 | 57 | 22 | 7.0 | 10.4 | 0.00 | 0.00 | 0.00 | 74 | 1034.2 |
| 20260504200017 | 57 | 38 | 7.8 | 16.5 | 0.00 | 0.00 | 0.00 | 75 | 1034.1 |
| 20260504194530 | 57 | 48 | 8.7 | 13.9 | 0.00 | 0.00 | 0.00 | 74 | 1034.0 |
| 20260504193027 | 57 | 10 | 6.1 | 11.3 | 0.00 | 0.00 | 0.00 | 75 | 1033.9 |
| 20260504191502 | 57 | 24 | 6.1 | 12.2 | 0.00 | 0.00 | 0.00 | 75 | 1033.9 |
| 20260504190032 | 57 | 88 | 5.2 | 10.4 | 0.00 | 0.00 | 0.00 | 76 | 1033.9 |
| 20260504184528 | 57 | 26 | 6.1 | 13.0 | 0.00 | 0.00 | 0.00 | 76 | 1033.8 |
| 20260504183026 | 57 | 68 | 6.1 | 12.2 | 0.00 | 0.00 | 0.00 | 76 | 1033.8 |
| 20260504181534 | 57 | 36 | 6.1 | 12.2 | 0.00 | 0.00 | 0.00 | 76 | 1033.8 |
| 20260504180110 | 57 | 19 | 7.0 | 14.8 | 0.00 | 0.00 | 0.00 | 76 | 1033.8 |
| 20260504174557 | 57 | 27 | 10.4 | 15.6 | 0.00 | 0.00 | 0.00 | 76 | 1033.9 |
| 20260504171553 | 58 | 342 | 9.6 | 17.4 | 0.00 | 0.00 | 0.00 | 76 | 1033.8 |
| 20260504120104 | 58 | 36 | 7.8 | 12.2 | 0.00 | 0.00 | 0.00 | 77 | 1034.7 |
| 20260504100117 | 58 | 20 | 7.8 | 13.9 | 0.00 | 0.00 | 0.00 | 74 | 1034.8 |
| 20260504081525 | 58 | 36 | 4.3 | 14.8 | 0.00 | 0.00 | 0.00 | 74 | 1034.4 |